Regional Weather Roundup
Issued by NWS Wakefield, VA

Home | Current Version | Previous Version | Text Only | Print | Product List | Glossary Off
Versions: 1 2 3 4 5 6 7 8 9 10 11 12 13 14 15 16 17 18 19 20 21 22 23 24 25 26 27 28 29 30 31 32 33 34 35 36 37 38 39 40 41 42 43 44 45 46 47 48 49 50

000
ASUS41 KAKQ 012210
RWRAKQ

REGIONAL WEATHER ROUNDUP
NATIONAL WEATHER SERVICE WAKEFIELD VA
500 PM EST SUN MAR 01 2015

Note: "fair" indicates few or no clouds below 12,000 feet with no
significant weather and/or obstructions to visibility. * = Denotes
station may not report precipitation (e.g., rain,snow,etc.),
thunder or fog.

VAZ042-051-052>054-056-012300-
NORTHERN VIRGINIA

CITY           SKY/WX    TMP DP  RH WIND       PRES   REMARKS
WASH NATIONAL  LGT RAIN  33  28  81 S8        30.38F
DULLES         FRZ RAIN  30  28  92 SW5       30.36F FOG
FORT BELVOIR   MIX PCPN  32  28  86 CALM      30.38S
QUANTICO       CLOUDY    31  28  89 S8        30.40F
FREDERICKSBRG* CLOUDY    33  33 100 CALM      30.37F
STAFFORD*      CLOUDY    31  32 100 CALM      30.41F
WARRENTON      DRIZZLE   32  32 100 CALM      30.35F
CULPEPER*      MIX PCPN  30  30 100 S3        30.35F
MANASSAS*      CLOUDY    30  30 100 S5        30.37F
LEESBURG*      MIX PCPN  32  32 100 S6        30.35F
WINCHESTER     MIX PCPN  32  28  86 SE5       30.29F
FRONT ROYAL*   CLOUDY    32  30  93 NE3       30.28F
LURAY*         CLOUDY    39  34  81 CALM      30.26F
$$

VAZ048-049-060>072-079>083-012300-
CENTRAL AND SOUTH CENTRAL VIRGINIA

CITY           SKY/WX    TMP DP  RH WIND       PRES   REMARKS
RICHMOND       FRZ RAIN  32  30  93 S6        30.37F FOG
CHESTERFIELD*  CLOUDY    32  21  64 CALM      30.38F
PETERSBURG*    MIX PCPN  33  32  97 CALM      30.39F
HANOVER        FRZ RAIN  31  30  96 S3        30.38F FOG
TAPPAHANNOCK*  MIX PCPN  32  29  90 SE5       30.38F
QUINTON*       CLOUDY    31  30  96 E3        30.38F
CHARLOTTSVILLE CLOUDY    30  27  88 SW3       30.33F
GORDONSVILLE*  CLOUDY    31  29  92 SW5       30.33F
ORANGE*        CLOUDY    32  32 100 CALM      30.36S
LOUISA*        CLOUDY    32  30  93 CALM      30.34F
BUMPASS*       CLOUDY    31  31  96 CALM      30.37F
FARMVILLE*     CLOUDY    35  35  99 CALM      30.39R
CREWE*         CLOUDY    32  32  97 S3        30.36F
FORT PICKETT*  CLOUDY    32  31  97 SE7       30.36F
CHASE CITY*    CLOUDY    35  35 100 CALM      30.37F
CLARKSVILLE*   CLOUDY    32  32 100 CALM      30.37S
SOUTH HILL*    CLOUDY    32  31  97 CALM      30.44F
LAWRENCEVILLE* CLOUDY    32  32  99 CALM      30.38F
EMPORIA*       MIX PCPN  32  32 100 CALM      30.43S
$$

VAZ088>098-012300-
SOUTHEAST VIRGINIA

CITY           SKY/WX    TMP DP  RH WIND       PRES   REMARKS
NORFOLK        CLOUDY    31  28  89 N9        30.37F FOG
VIRGINIA BEACH DRIZZLE   34  28  79 N3        30.36F FOG
NORFOLK NAVAL  CLOUDY    34  29  82 N8        30.39F FOG
WEST POINT*    CLOUDY    33  31  90 CALM      30.41F
SALUDA*        CLOUDY    30  29  95 NW3       30.39F
NEWPORT NEWS   LGT RAIN  34  30  85 NE8       30.38F FOG
LANGLEY AFB    FLURRIES  31  29  93 N7        30.38F
FORT EUSTIS    MIX PCPN  32  32 100 VRB6      30.37F FOG
WILLIAMSBURG*  CLOUDY    36  34  93 CALM      30.39F VSB 1/2
HR EXEC AP*    CLOUDY    32  28  86 NE5       30.40F
FRANKLIN*      DRIZZLE   32  32  99 NW3       30.39S
WAKEFIELD      FRZ RAIN  32  29  88 VRB3      30.41R FOG
$$

VAZ020-022-025-037-045-012300-
WEST CENTRAL AND SOUTHWEST VIRGINIA

CITY           SKY/WX    TMP DP  RH WIND       PRES   REMARKS
STAUNTON*      CLOUDY    37  30  75 S6        30.30F
WAYNESBORO*    CLOUDY    35  30  80 CALM      30.28F
HOT SPRINGS VA LGT RAIN  38  38 100 W20       30.21F
LYNCHBURG      CLOUDY    31  30  96 SW3       30.36F FOG
DANVILLE       CLOUDY    35  32  88 SW3       30.38F
SOUTH BOSTON*  CLOUDY    33  32  97 CALM      30.38F
MARTINSVILLE   CLOUDY    37  37  99 SE3       30.37F
ROANOKE        CLOUDY    36  26  67 CALM      30.34F
BLACKSBURG     CLOUDY    42  29  60 E6        30.30F
DUBLIN*        CLOUDY    43  33  66 CALM      30.29F
MARION*        CLOUDY    47  37  65 SW8       30.31S
HILLSVILLE*    PTSUNNY   48  41  77 S3        30.29R
RICHLANDS*     LGT RAIN  43  41  93 S7        30.29F
WISE*          CLOUDY    43  43 100 SW15G23   30.29S
ABINGDON*      CLOUDY    50  37  61 W3        30.32R
$$

MDZ021>025-VAZ099-100-012300-
SOUTHERN MARYLAND AND THE DELMARVA PENINSULA

CITY           SKY/WX    TMP DP  RH WIND       PRES   REMARKS
PATUXENT RIVER FRZ RAIN  28  25  88 SE13      30.36F FOG     WCI  17
BAY BRIDGE APT MIX PCPN  30  30 100 SE5       30.37F
LEONARDTOWN    CLOUDY    32  30  93 CALM      30.37F
DOVER          FRZ RAIN  31  31 100 S2        30.37F FOG
GEORGETOWN     FRZ RAIN  31  29  92 CALM      30.40F FOG
EASTON         CLOUDY    32  32 100 SE5       30.40F FOG
CAMBRIDGE      CLOUDY    32  30  93 SE7       30.39F
SALISBURY      LGT RAIN  34  30  85 NW3       30.39F FOG
OCEAN CITY     MIX PCPN  32  31  96 CALM      30.39F FOG
WALLOPS ISLAND MIX PCPN  32  31  96 N5        30.39F FOG
ACCOMACK*      MIX PCPN  32  30  93 N5        30.38F
$$

NCZ012>017-030>032-012300-
NORTH CENTRAL AND EASTERN NORTH CAROLINA

CITY           SKY/WX    TMP DP  RH WIND       PRES   REMARKS
ROANOKE RAPIDS RAIN      32  32 100 CALM      30.41S
RALEIGH        LGT RAIN  36  30  80 CALM      30.38F
ELIZABETH CITY RAIN      41  40  96 N5        30.35F VSB 1
AHOSKIE*       RAIN      32  31  97 CALM      30.42R
EDENTON*       DRIZZLE   41  40  97 N3        30.35F
CURRITUCK*     RAIN      38  37  94 NE5       30.37F
KILL DEVIL HLS DRIZZLE   50  50 100 SE6       30.33F
MANTEO         LGT RAIN  46  45  93 S8G17     30.34F
CAPE HATTERAS  LGT RAIN  52  50  93 S9        30.35F
TARBORO*       LGT RAIN  34  33  95 N6        30.41F
GOLDSBORO      CLOUDY    37  36  99 NW3       30.38F
WASHINGTON     DRIZZLE   39  38  96 NW6       30.37F
GREENVILLE     CLOUDY    36  36 100 NW6       30.40R
NEW BERN       CLOUDY    49  46  90 NW3       30.37F
WILMINGTON     CLOUDY    50  46  86 N5        30.36F
$$

VAZ048-012300-
ELSEWHERE

CITY           SKY/WX    TMP DP  RH WIND       PRES   REMARKS
HARRISBURG PA  FRZ RAIN  27  24  89 E5        30.32F FOG
BALTIMORE      FRZ RAIN  31  29  92 S5        30.34F FOG
ANNAPOLIS      FRZ RAIN  29  26  89 MISG      30.36F FOG
ANDREWS AFB    FRZ RAIN  32  30  93 CALM      30.35F
PHILADELPHIA   FRZ RAIN  30  26  85 S7        30.38F FOG
HENDERSON NC   CLOUDY    32  31  96 CALM      30.37F
GREENSBORO     CLOUDY    36  33  89 SW5       30.35F FOG
ROCKY MOUNT    CLOUDY    34  33  96 N7        30.40F
$$

VAZ100-012300-
MARINE

STATION/POSITION TIME  TEMP    WIND        PRES    WAVE   SWELL
                       AIR SEA DIR/SP/G            HT/PER HT/PER
                 (UTC) (F)     (DEG/KT/KT) (MB)    (FT/S) (FT/S)
BRANDYWINE LGT   2200   28 30  180/  2/  3 1029.5F
CAPE MAY NJ      2200   30 32     CALM     1029.0F
LEWES DE         2200   29 30     CALM     1029.2F
15NM E FENWICK I 2200   31 34              1028.6F   2/10
OCEAN-CITY-INLET 2200   31 32   20/  1/  1 1028.8F
WACHAPREAGUE VA  2200   32 33   10/  4/  7 1028.6F
THOMAS POINT MD  2200   28 31     CALM     1029.3F
COVE POINT MD    2200   26        CALM     1028.4F
SOLOMONS ISLAND  2200      32                N/A
BISHOPS HEAD MD  2200   29 31   30/  2/  3 1028.9F
CAMBRIDGE MD     2200   29 32     CALM     1028.4F
LEWISETTA VA     2200                      1028.8F
RAPPAHANNOCK LGT 2200          350/  6/  6 1029.6F
STINGRAY PT      2200   29      10/  6/  6   N/A
YORK RVR RNG VA  2200   31     360/  6/  6 1028.3F
YORKTOWN VA      2200   31 33   10/  5/  6 1028.8F
DOMINION TERM VA 2200   32      60/  3/  5 1028.7F
KIPTOPEKE VA     2200           20/  6/  8   N/A
CHES BAY BRIDGE  2200   30 33   10/ 10/ 11 1028.3F
CAPE HENRY VA    2200   30     350/  8/ 10 1026.9F
CHESAPEAKE LGHT  2100   33     360/ 12/ 13 1029.7F
WILLOUBY STN VA  2200           30/  7/  8 1029.0F
S CRANEY ISL VA  2200           50/  7/  9 1028.4F
CAPE HENRY BUOY  2200      35                N/A     4/ 5
1ST LANDING BUOY 2200   31     350/ 10/ 12 1028.4F
OFFSHORE WE BUOY 2200      37                N/A     4/ 5   3/ 5
64NM E OF VA BCH 2200   61 62  170/ 21/ 27 1026.9F   5/ 5   2/ 8
DUCK PIER NC     2200   34 34  360/ 11/ 12 1027.3R
44100 DUCK FRF   2100      36                N/A     4/ 5
44056 DUCK FRF   2200      34                N/A     3/ 5
OREGON INLET NC  2200   50 40  130/  9/ 13 1027.3F
HATTERAS NC      2200   51 40  160/ 10/ 14 1027.9F
CAPE LOOKOUT NC  2100   57     160/ 13/ 13 1027.7F
$$


USA.gov is the U.S. government's official web portal to all federal, state and local government web resources and services.